OneWeb SL0148

operational
NORAD ID: 48059 Int'l Des: 2021-025 Owner: ONEWEBN Country: UK Constellation: oneweb
LEOCIRCULARPOLARONEWEB_TYPE

OneWeb SL0148について

説明を読み込み中...

リアルタイム位置

3D地球を読み込み中...

次回通過

高度履歴

Altitude vs Time

uPlot chart will show altitude changes over time

軌道要素

1 48059U 21025T 26034.27751084 -.00000239 00000-0 -68930-3 0 9990
2 48059 87.9025 346.8481 0002430 81.3153 278.8251 13.13471533236031
Epoch: Feb 3, 2026 • Age: 28 hours

現在のステータス

高度 1216.9 km
速度 7.25 km/s
衛星直下点 53.40°N, 59.52°E
打ち上げ日 Mar 25, 2021
運用期間 4.8 years
タイプ internet

技術仕様

分類 Payload
質量 148.00 kg
乾燥質量 140.00 kg
総質量 148.00 kg
長さ 1.30 m
直径 1.00 m
スパン 5.00 m
形状 Trapezoid+2 pan
製造者 ONEWUS
バスタイプ ARROW
フェーズステータス In Orbit
所有者/国 ONEWEBN/UK

大規模コンステレーション

Loading constellations...